Location: Sardis
(32.9753°N, 81.7579°W)
Time: 04:20:47
(UTC+00:00)

N. Korean satellite - Visible Passes

Search period start: 16 August 2022 00:00
Search period end: 26 August 2022 00:00
Orbit: 433 x 470 km, 97.3° (Epoch: 15 August)

Date Brightness Start Highest point End Pass type
(mag) Time Alt. Az. Time Alt. Az. Time Alt. Az.
16 Aug 8.1 10:14:32 10° NNE 10:17:51 38° E 10:21:07 10° SSE visible
17 Aug 9.7 09:41:34 10° ENE 09:43:10 13° E 09:44:45 10° ESE visible
19 Aug 8.8 10:03:52 10° NE 10:06:52 26° E 10:09:50 10° SSE visible
21 Aug 7.1 10:26:57 10° NNE 10:30:24 60° E 10:33:49 10° S visible
22 Aug 9.4 09:53:09 10° NE 09:55:40 18° E 09:58:08 10° SE visible
24 Aug 8.0 10:15:47 10° NNE 10:19:05 39° E 10:22:19 10° S visible
25 Aug 9.7 09:42:35 10° ENE 09:44:12 13° E 09:45:49 10° ESE visible
